Satellite: ANTELSAT Catalog number: 40034 Epoch time: 15106.61838246 Element set: 999 Inclination: 097.9503 deg RA of node: 000.0010 deg Eccentricity: 0.0059710 Arg of perigee: 318.2415 deg Mean anomaly: 041.4245 deg Mean motion: 14.72514058 rev/day Decay rate: 2.292e-05 rev/day^2 Epoch rev: 4423 Checksum: 262
/EX SB KEPS @ AMSAT $ORB15106.W Orbital Elements 15106.WEATHER
HR AMSAT ORBITAL ELEMENTS FOR WEATHER SATELLITES FROM WA5QGD FORT WORTH,TX April 16, 2015 BID: ORB15106.W TO ALL RADIO AMATEURS BT
Satellite: MET-2/21 Catalog number: 22782 Epoch time: 15106.12130131 Element set: 999 Inclination: 082.5463 deg RA of node: 292.9233 deg Eccentricity: 0.0023305 Arg of perigee: 133.1232 deg Mean anomaly: 336.2136 deg Mean motion: 13.83765843 rev/day Decay rate: 7.6e-07 rev/day^2 Epoch rev: 9201 Checksum: 272
Satellite: OKEAN-4 Catalog number: 23317 Epoch time: 15105.84351074 Element set: 999 Inclination: 082.5370 deg RA of node: 143.9870 deg Eccentricity: 0.0020511 Arg of perigee: 171.7535 deg Mean anomaly: 315.4939 deg Mean motion: 14.86519719 rev/day Decay rate: 1.523e-05 rev/day^2 Epoch rev: 10805 Checksum: 305
Satellite: NOAA-14 Catalog number: 23455 Epoch time: 15106.50681473 Element set: 999 Inclination: 098.7534 deg RA of node: 189.2231 deg Eccentricity: 0.0008428 Arg of perigee: 254.1080 deg Mean anomaly: 226.7252 deg Mean motion: 14.14033840 rev/day Decay rate: 7.8e-07 rev/day^2 Epoch rev: 4681 Checksum: 301
Satellite: NOAA-15 Catalog number: 25338 Epoch time: 15106.46428148 Element set: 999 Inclination: 098.7717 deg RA of node: 105.0642 deg Eccentricity: 0.0010431 Arg of perigee: 354.4536 deg Mean anomaly: 005.6526 deg Mean motion: 14.25599406 rev/day Decay rate: 2.90e-06 rev/day^2 Epoch rev: 88004 Checksum: 310
Satellite: RESURS Catalog number: 25394 Epoch time: 15105.90649513 Element set: 999 Inclination: 098.4591 deg RA of node: 063.2570 deg Eccentricity: 0.0002548 Arg of perigee: 091.9752 deg Mean anomaly: 332.0702 deg Mean motion: 14.24452361 rev/day Decay rate: 4.1e-07 rev/day^2 Epoch rev: 87141 Checksum: 295
Satellite: FENGYUN1 Catalog number: 25730 Epoch time: 15105.87562802 Element set: 999 Inclination: 098.9402 deg RA of node: 070.7737 deg Eccentricity: 0.0019184 Arg of perigee: 331.3649 deg Mean anomaly: 081.5825 deg Mean motion: 14.13189539 rev/day Decay rate: 2.258e-05 rev/day^2 Epoch rev: 82025 Checksum: 325
Satellite: OKEAN-0 Catalog number: 25860 Epoch time: 15105.88093057 Element set: 999 Inclination: 098.0881 deg RA of node: 073.8528 deg Eccentricity: 0.0001638 Arg of perigee: 106.9706 deg Mean anomaly: 305.2968 deg Mean motion: 14.75947977 rev/day Decay rate: 1.132e-05 rev/day^2 Epoch rev: 84679 Checksum: 357
Satellite: NOAA-16 Catalog number: 26536 Epoch time: 15106.49363700 Element set: 999 Inclination: 098.9476 deg RA of node: 172.5143 deg Eccentricity: 0.0011284 Arg of perigee: 051.5383 deg Mean anomaly: 308.6800 deg Mean motion: 14.13087860 rev/day Decay rate: 8.7e-07 rev/day^2 Epoch rev: 75094 Checksum: 322
Satellite: NOAA-17 Catalog number: 27453 Epoch time: 15106.49476764 Element set: 999 Inclination: 098.3367 deg RA of node: 095.5578 deg Eccentricity: 0.0011935 Arg of perigee: 010.4043 deg Mean anomaly: 349.7382 deg Mean motion: 14.24871360 rev/day Decay rate: 1.42e-06 rev/day^2 Epoch rev: 66587 Checksum: 343
Satellite: NOAA-18 Catalog number: 28654 Epoch time: 15106.49304568 Element set: 999 Inclination: 099.1816 deg RA of node: 097.6414 deg Eccentricity: 0.0015083 Arg of perigee: 130.9124 deg Mean anomaly: 229.3356 deg Mean motion: 14.12178550 rev/day Decay rate: 2.36e-06 rev/day^2 Epoch rev: 51036 Checksum: 315
Satellite: NOAA-19 Catalog number: 33591 Epoch time: 15106.44351149 Element set: 999 Inclination: 098.9845 deg RA of node: 056.1935 deg Eccentricity: 0.0013915 Arg of perigee: 348.9196 deg Mean anomaly: 011.1667 deg Mean motion: 14.11912395 rev/day Decay rate: 3.28e-06 rev/day^2 Epoch rev: 31877 Checksum: 340
/EX SB KEPS @ AMSAT $ORB15106.M Orbital Elements 15106.MISC
HR AMSAT ORBITAL ELEMENTS FOR MANNED AND MISCELLANEOUS SATELLITES FROM WA5QGD FORT WORTH,TX April 16, 2015 BID: ORB15106.M TO ALL RADIO AMATEURS BT
Satellite: HUBBLE Catalog number: 20580 Epoch time: 15106.53995354 Element set: 999 Inclination: 028.4696 deg RA of node: 200.5835 deg Eccentricity: 0.0002598 Arg of perigee: 298.6807 deg Mean anomaly: 184.0830 deg Mean motion: 15.07193266 rev/day Decay rate: 3.732e-05 rev/day^2 Epoch rev: 17050 Checksum: 320
Satellite: ISS Catalog number: 25544 Epoch time: 15106.60723639 Element set: 999 Inclination: 051.6485 deg RA of node: 031.6699 deg Eccentricity: 0.0005592 Arg of perigee: 223.2879 deg Mean anomaly: 196.2616 deg Mean motion: 15.55740901 rev/day Decay rate: 1.7808e-04 rev/day^2 Epoch rev: 93845 Checksum: 341
Satellite: CO-58 Catalog number: 28895 Epoch time: 15105.80645653 Element set: 999 Inclination: 097.8226 deg RA of node: 296.8398 deg Eccentricity: 0.0018180 Arg of perigee: 131.4727 deg Mean anomaly: 228.8040 deg Mean motion: 14.62664401 rev/day Decay rate: 1.435e-05 rev/day^2 Epoch rev: 50447 Checksum: 343
Satellite: FALCON Catalog number: 30776 Epoch time: 15105.23160735 Element set: 999 Inclination: 035.4287 deg RA of node: 035.4315 deg Eccentricity: 0.0000365 Arg of perigee: 356.6423 deg Mean anomaly: 133.5581 deg Mean motion: 15.23005252 rev/day Decay rate: 1.4676e-04 rev/day^2 Epoch rev: 44669 Checksum: 293
Satellite: MAST Catalog number: 31126 Epoch time: 15105.87437301 Element set: 999 Inclination: 097.9548 deg RA of node: 076.7633 deg Eccentricity: 0.0092166 Arg of perigee: 129.6293 deg Mean anomaly: 291.4622 deg Mean motion: 14.55943901 rev/day Decay rate: 9.86e-06 rev/day^2 Epoch rev: 42442 Checksum: 330
Satellite: CAPE1 Catalog number: 31130 Epoch time: 15105.41495238 Element set: 999 Inclination: 097.9764 deg RA of node: 073.4189 deg Eccentricity: 0.0098152 Arg of perigee: 150.4417 deg Mean anomaly: 210.2380 deg Mean motion: 14.55344832 rev/day Decay rate: 1.232e-05 rev/day^2 Epoch rev: 42375 Checksum: 297
Satellite: COMPASS Catalog number: 32787 Epoch time: 15105.44023431 Element set: 999 Inclination: 097.6585 deg RA of node: 155.0309 deg Eccentricity: 0.0011726 Arg of perigee: 259.1367 deg Mean anomaly: 100.8532 deg Mean motion: 14.90297790 rev/day Decay rate: 3.917e-05 rev/day^2 Epoch rev: 37716 Checksum: 319
Satellite: AAUSAT2 Catalog number: 32788 Epoch time: 15106.41660752 Element set: 999 Inclination: 097.6592 deg RA of node: 157.3879 deg Eccentricity: 0.0011188 Arg of perigee: 251.7035 deg Mean anomaly: 108.2967 deg Mean motion: 14.91303313 rev/day Decay rate: 6.709e-05 rev/day^2 Epoch rev: 37739 Checksum: 341
Satellite: DO-64 Catalog number: 32789 Epoch time: 15106.25529649 Element set: 999 Inclination: 097.6795 deg RA of node: 167.2283 deg Eccentricity: 0.0009884 Arg of perigee: 221.1551 deg Mean anomaly: 179.2047 deg Mean motion: 14.98852672 rev/day Decay rate: 1.4636e-04 rev/day^2 Epoch rev: 37780 Checksum: 374
Satellite: CO-66 Catalog number: 32791 Epoch time: 15106.11722616 Element set: 999 Inclination: 097.6578 deg RA of node: 153.7168 deg Eccentricity: 0.0012441 Arg of perigee: 263.5126 deg Mean anomaly: 096.4675 deg Mean motion: 14.88453228 rev/day Decay rate: 3.337e-05 rev/day^2 Epoch rev: 37708 Checksum: 342
Satellite: RS-30 Catalog number: 32953 Epoch time: 15106.50308028 Element set: 999 Inclination: 082.5087 deg RA of node: 012.6019 deg Eccentricity: 0.0017769 Arg of perigee: 213.8071 deg Mean anomaly: 146.1874 deg Mean motion: 12.43058686 rev/day Decay rate: 1.0e-07 rev/day^2 Epoch rev: 31294 Checksum: 297
Satellite: METEOR-M Catalog number: 35865 Epoch time: 15106.57112480 Element set: 999 Inclination: 098.5066 deg RA of node: 149.1001 deg Eccentricity: 0.0002042 Arg of perigee: 320.2493 deg Mean anomaly: 039.8552 deg Mean motion: 14.22011675 rev/day Decay rate: 1.07e-06 rev/day^2 Epoch rev: 28945 Checksum: 283
Satellite: RS-38 Catalog number: 35869 Epoch time: 15106.54557624 Element set: 999 Inclination: 098.4983 deg RA of node: 148.7367 deg Eccentricity: 0.0003854 Arg of perigee: 301.6693 deg Mean anomaly: 058.4111 deg Mean motion: 14.22285365 rev/day Decay rate: 6.7e-07 rev/day^2 Epoch rev: 28949 Checksum: 359
Satellite: JUGNU Catalog number: 37839 Epoch time: 15105.71115005 Element set: 999 Inclination: 019.9606 deg RA of node: 221.2611 deg Eccentricity: 0.0019143 Arg of perigee: 077.7021 deg Mean anomaly: 068.7583 deg Mean motion: 14.12448797 rev/day Decay rate: 5.16e-06 rev/day^2 Epoch rev: 18137 Checksum: 302
Satellite: SRMSAT Catalog number: 37841 Epoch time: 15106.54173628 Element set: 999 Inclination: 019.9713 deg RA of node: 241.6731 deg Eccentricity: 0.0011918 Arg of perigee: 015.8260 deg Mean anomaly: 058.3330 deg Mean motion: 14.10464686 rev/day Decay rate: 4.62e-06 rev/day^2 Epoch rev: 18123 Checksum: 293
Satellite: RAX-2 Catalog number: 37853 Epoch time: 15106.46340368 Element set: 999 Inclination: 101.7157 deg RA of node: 287.2042 deg Eccentricity: 0.0199101 Arg of perigee: 255.9303 deg Mean anomaly: 132.8029 deg Mean motion: 14.95040690 rev/day Decay rate: 1.3587e-04 rev/day^2 Epoch rev: 18787 Checksum: 323
Satellite: AUBIESAT Catalog number: 37854 Epoch time: 15105.45799922 Element set: 999 Inclination: 101.7195 deg RA of node: 288.8573 deg Eccentricity: 0.0195173 Arg of perigee: 253.7616 deg Mean anomaly: 158.3402 deg Mean motion: 14.97004818 rev/day Decay rate: 1.1792e-04 rev/day^2 Epoch rev: 18783 Checksum: 353
Satellite: HRBE Catalog number: 37855 Epoch time: 15106.48035064 Element set: 999 Inclination: 101.7196 deg RA of node: 289.1584 deg Eccentricity: 0.0198829 Arg of perigee: 253.5833 deg Mean anomaly: 104.3437 deg Mean motion: 14.95948074 rev/day Decay rate: 1.2878e-04 rev/day^2 Epoch rev: 18792 Checksum: 359
